User: anonymous   Login
Location: Caltech
(34.1382°N, 118.1253°W)
Time: 11:46:52
(UTC-07:00)
Language:

Cosmos 44 Rocket - Orbit

View from above orbital plane
View from above orbital plane
View from above satellite
View from above satellite

Ground track
Ground track

The orbit data is extracted from the following two-line orbital elements,

1 00877U 64053B   14296.37834509  .00000392  00000-0  10673-3 0  7634
2 00877 065.0795 239.6206 0054777 142.2547 218.2415 14.58919020660306
Epoch (UTC): 23 October 2014 09:04:49
Eccentricity: 0.0054777
inclination: 65.0795°
perigee height: 658 km
apogee height: 735 km
right ascension of ascending node: 239.6206°
argument of perigee: 142.2547°
revolutions per day: 14.58919020
mean anomaly at epoch: 218.2415°
orbit number at epoch: 66030

The dashed part of the orbit path shows where the satellite is in the earth's shadow,  

DLR